IRIDIUM 33 DEB, 37136

Orbit data source: Space-Track

IRIDIUM 33 DEB, 37136 is space debris in LEO originally from a launch on Sun, 14 Sep 1997 UTC launched from the Tyuratam Missile And Space Complex (TTMTR). The debris from Iridium 33, an American commercial communications satellite, has been tracked extensively since its accidental collision with the defunct Russian satellite Cosmos 2251 in 2009. This event, occurring at high speed in low Earth orbit (LEO), generated thousands of pieces of space debris, significantly increasing the risk of further collisions. The Iridium 33 debris cloud has impacted space traffic management and orbital debris mitigation strategies, making it a subject of ongoing study in space situational awareness.

Loading next visibility...
Identifier
37136, 1997-051XG
Orbit
LEO
Country
Flag of USUS
Related business
Manufacturer
Unknown
Mission
Spacecraft
Bus & Motor
Unknown
Mass
Unknown
Launch date (UTC)
1997-09-14 (29 years ago)
Launch vehicle
Unknown
Launch site
Tyuratam Missile And Space Complex (TTMTR)
Object type
Payload
Rocket body
Debris
Shape & HBR
Unknown shape, 0.1 m
Radar Cross Section
Medium (>0.1 m² and <1 m²)

Expand to show TLE details & history
Last TLE update: 2 weeks ago

TLE from 2 weeks ago
0 IRIDIUM 33 DEB
1 37136U 97051XG  26251.18707864  .00000861  00000-0  32633-3 0  9994
2 37136  86.1720 218.9392 0074743 198.6623 161.1827 14.28474092683442
Epoch: 2026-09-08T04:29Z
TLE epoch observation values (Epoch: 2026-09-08T04:29:23.594Z)
Latitude
-0.00002°
Longitude
164.33379°
Altitude
850.689 km
Speed
7.401 km/s
True Right ascension
14h 35m 45s
True Declination
0° 00' 00"
Sunlit
Object was in daylight at epoch
Visualization orbit readout
Latitude
Unknown
Longitude
Unknown
Altitude
Unknown
Speed
Unknown
Apparent Right ascension
Unknown
Apparent Declination
Unknown
Sunlit
N/A
Visualization observer readout
Local Sidereal Time
03:47:48
Azimuth
Unknown
Elevation
Unknown
Doppler factor
Unknown
Orbital elements
Apogee altitude
847.418 km
Perigee altitude
740.208 km
Semi-major axis
7,171.95 km
Eccentricity
0.00747
Inclination
86.172°
RAAN
218.9392°
Arg. of periapsis
198.6623°
True anomaly
161.45654°
Mean anomaly
161.1827°
Eccentric anomaly
161.31986°
Mean motion
3.57345 °/min
Orbital period
100.74 mins
BSTAR
0.00032633
Loading maneuver chart data...
Computing Atmospheric mass density...

Documentation

Showing up to 5 results
|